Tracking 29892 objects as of 21-Nov-2024
HD Live streaming from Space Station
objects crossing your sky now

FENGYUN 1C DEB

Track FENGYUN 1C DEB now!
10-day predictions


NORAD ID: 30050
Int'l Code: 1999-025PB
Perigee: 830.7 km
Apogee: 1,084.2 km
Inclination: 96.8 °
Period: 104.1 minutes
Semi major axis: 7328 km
RCS: 0.035 m2 (small)
Launch date: May 10, 1999
Source: People's Republic of China (PRC)
Launch site: Taiyaun Space Center, China (TSC)

Note: This is SATELLITE DEBRIS
Your satellite tracking list
Your tracking list is empty




NASA's NSSDC Master Catalog

Two Line Element Set (TLE):
1 30050U 99025PB  24324.96286057  .00001569  00000-0  12813-2 0  9999
2 30050  96.8223  25.0651 0172954  56.6471  67.9565 13.83841708898361
Source of the keplerian elements: AFSPC